Location: Andrest
(43.3200°N, 0.0641°E)
Time: 09:54:12
(UTC+00:00)

Lacrosse 5 rocket - Pass Details

Date: 01 December 2020
Orbit: 461 x 634 km, 57.0° (Epoch: 23 January)

Event Time Altitude Azimuth Distance (km) Brightness Sun altitude
Rises 18:21:15 0° 279° (W) 2,514 5.9 -20.5°
Reaches altitude 10° 18:24:12 10° 305° (NW) 1,622 4.3 -21.1°
Maximum altitude 18:26:16 14° 340° (NNW) 1,367 3.4 -21.4°
Enters shadow 18:26:46 14° 349° (N) 1,381 3.3 -21.5°
